Location: Borgo
(42.3939°N, 9.2791°E)
Time: 18:34:03
(UTC+00:00)

Cosmos 2082 Rocket - Pass Details

Date: 24 January 2021
Orbit: 832 x 854 km, 71.0° (Epoch: 03 March)

Event Time Altitude Azimuth Distance (km) Brightness Sun altitude
Rises 18:36:13 0° 340° (NNW) 3,434 5.6 -23.8°
Reaches altitude 10° 18:38:50 10° 348° (NNW) 2,493 4.7 -24.3°
Enters shadow 18:42:34 34° 18° (NNE) 1,371 3.1 -25.0°
